Regional Weather Roundup
Issued by NWS

Home | Current Version | Previous Version | Graphics & Text | Print | Product List | Glossary Off
Versions: 1 2 3 4 5 6 7 8 9 10 11 12 13 14 15 16 17 18 19 20 21 22 23 24 25 26 27 28 29 30 31 32 33 34 35 36 37 38 39 40 41 42 43 44 45 46 47 48 49 50

000
ASUS43 KMKX 060100
RWRWI

WISCONSIN REGIONAL WEATHER ROUNDUP
NATIONAL WEATHER SERVICE MILWAUKEE/SULLIVAN WI
800 PM CDT THU MAY 05 2016

NOTE: "FAIR" INDICATES FEW OR NO CLOUDS BELOW 12,000 FEET WITH NO
SIGNIFICANT WEATHER AND/OR OBSTRUCTIONS TO VISIBILITY.

WIZ001-002-006>008-014>016-023>028-060200-
NORTHWEST WISCONSIN

CITY           SKY/WX    TMP DP  RH WIND       PRES   REMARKS
SUPERIOR ARPT  CLEAR     77  42  27 SW10      29.78S
ASHLAND        CLEAR     69  40  34 S9        29.83F
HAYWARD        CLEAR     65  39  38 S10       29.87F
SIREN          CLEAR     73  36  26 SW8       29.85F
CUMBERLAND     CLEAR     66  36  32 S7        29.89F
RICE LAKE      CLEAR     69  37  31 S5        29.91F
CHETEK         CLEAR     65  42  42 SW5       29.90F
LADYSMITH      PTCLDY    64  40  42 S5        29.92F
EAU CLAIRE     NOT AVBL
MENOMONIE      CLEAR     69  38  32 SE6       29.91S
NEW RICHMOND   CLEAR     69  38  32 SW5       29.89F
OSCEOLA        CLEAR     73  38  28 SW6       29.91S
$$

WIZ003>005-009-010-017-018-060200-
NORTH CENTRAL WISCONSIN

CITY           SKY/WX    TMP DP  RH WIND       PRES   REMARKS
MANITOWISH WTR PTCLDY    64  39  38 W7        29.89S
ARBOR VITAE    PTCLDY    63  40  42 SW3       29.90F
WOODRUFF       PTCLDY    63  40  42 SW3       29.90F
RHINELANDER    CLEAR     62  37  39 SW5       29.92S
EAGLE RIVER    CLEAR     59  35  40 SW6       29.90R
LAND O LAKES   CLEAR     65  34  31 SW5       29.90S
PHILLIPS       MOCLDY    64  40  40 SW8       29.90R
TOMAHAWK       PTCLDY    62  38  40 SW3       29.91F
MEDFORD        LGT RAIN  60  43  54 SW6       29.91F
MERRILL        CLOUDY    61  41  48 SW7       29.93F
$$

WIZ029-030-035-036-043>047-060200-
CENTRAL WISCONSIN

CITY           SKY/WX    TMP DP  RH WIND       PRES   REMARKS
WAUSAU         PTCLDY    63  38  39 W6        29.91F
MOSINEE        PTCLDY    61  37  41 SW3       29.94F
MARSHFIELD     PTCLDY    63  39  41 W7        29.93F
STEVENS POINT  CLEAR     63  34  34 W3        29.94S
WAUPACA        CLEAR     66  28  24 W3        29.93S
WAUTOMA        NOT AVBL
WISC RAPIDS    CLEAR     63  33  32 W3        29.94F
CAMP DOUGLAS   NOT AVBL
$$

WIZ011>013-019>022-031-037>040-048>050-060200-
NORTHEAST WISCONSIN

CITY           SKY/WX    TMP DP  RH WIND       PRES   REMARKS
ANTIGO         CLEAR     59  39  48 W5        29.93S
SHAWANO        CLEAR     67  31  26 W3        29.91S
OCONTO         CLEAR     58  39  48 S5        29.90S
STURGEON BAY   CLEAR     50  36  57 S6        29.96R
GREEN BAY      CLEAR     60  41  49 S8        29.92S
MANITOWOC      NOT AVBL
APPLETON       PTCLDY    57  36  44 S7        29.92S
CLINTONVILLE   CLEAR     64  30  27 W8        29.92R
OSHKOSH        CLEAR     52  40  63 S5        29.93F
$$

WIZ032>034-041-042-053>061-060200-
SOUTHWEST WISCONSIN

CITY           SKY/WX    TMP DP  RH WIND       PRES   REMARKS
LA CROSSE      PTCLDY    67  39  35 SE3       29.94S
SPARTA         PTCLDY    65  38  36 CALM      29.95F
VIROQUA        CLEAR     63  38  40 W6        29.96F
BOSCOBEL       CLEAR     64  36  35 CALM      29.96S
PRAIRIE DU CHI CLEAR     66  34  30 W5        29.96S
PLATTEVILLE    CLEAR     63  34  34 W3        29.97F
$$

WIZ056-057-062-063-064-067-068-060200-
SOUTH CENTRAL WISCONSIN

CITY           SKY/WX    TMP DP  RH WIND       PRES   REMARKS
REEDSBURG      CLEAR     62  35  35 W3        29.94F
BARABOO/DELLS  CLEAR     62  31  30 CALM      29.95S
LONE ROCK      NOT AVBL
MINERAL POINT  CLEAR     59  36  41 W6        29.97S
MADISON        MOCLDY    59  35  40 CALM      29.95F
MIDDLETON      CLEAR     62  32  33 CALM      29.96F
WATERTOWN      CLEAR     61  37  39 CALM      29.94F
MONROE         CLEAR     61  36  39 W6        29.96F
JANESVILLE     CLEAR     61  36  39 CALM      29.96S
$$

WIZ051-052-058>065-066-070>072-060200-
SOUTHEAST WISCONSIN

CITY           SKY/WX    TMP DP  RH WIND       PRES   REMARKS
MILWAUKEE      MOCLDY    50  36  58 CALM      29.97F
WAUKESHA       CLEAR     52  39  62 E6        29.97S
MILWAUKEE/TIMM NOT AVBL
RACINE         CLEAR     49  35  58 CALM      29.99R
BURLINGTON     CLEAR     56  40  56 E6        29.97R
KENOSHA        CLEAR     46  37  71 E5        29.97S
FOND DU LAC    CLEAR     58  39  49 CALM      29.93F
SHEBOYGAN      CLEAR     49  39  68 S5        29.95F
WEST BEND      CLEAR     52  37  58 SE5       29.96S
JUNEAU         CLEAR     61  35  37 W3        29.95F
$$

LSZ147-162-060200-
LAKE SUPERIOR

STATION/POSITION TIME  TEMP    WIND        PRES    WAVE
                       AIR SEA DIR/SP/G            HT/PER
                 (UTC) (F)     (DEG/KT/KT) (MB)    (FT/S)
W MID LAKE BUOY  2350   44 37  170/  8/  8 1009.9F   0
DEVILS ISLAND    0000   69     180/ 10/ 12 1008.6F
SAXON HARBOR     0000   73     220/  8/ 13 1010.2S
$$

LMZ867-665-643>646-060200-
LAKE MICHIGAN

STATION/POSITION TIME  TEMP    WIND        PRES    WAVE
                       AIR SEA DIR/SP/G            HT/PER
                 (UTC) (F)     (DEG/KT/KT) (MB)    (FT/S)
CHAMBERS ISLAND  0040   55     140/  4/  6 1013.2S
N MID LAKE BUOY  2350   41 39  200/  6/  6 1013.8F   0
NORTHPORT PIER   0000   52     170/  4/  9 1013.5S
ALGOMA LAKESHORE 0015          210/ 11/ 12   N/A
KEWAUNEE LAKESHO 0000          180/ 10/ 11 1013.4F
SHEBOYGAN LAKESH 0000   45     170/  4/  5 1015.4F
PORT WASHINGTON  0000   48     170/  3/  3 1015.6S
S MID LAKE BUOY  2350   43 40   20/  4/  6 1014.7F   2/ 5
KENOSHA   LAKESH 0000   49      CALM  /  2 1014.9F
$$

TC  - TEMPERATURE IN CELSIUS
VSB - VISIBILITY IN STATUTE MILES
WCI - WIND CHILL INDEX
HX  - HEAT INDEX




USA.gov is the U.S. government's official web portal to all federal, state and local government web resources and services.